745  
ASUS46 KLOX 181613  
RWRCA  
 
SOUTHERN CALIFORNIA WEATHER ROUNDUP  
NATIONAL WEATHER SERVICE OXNARD CALIFORNIA  
900 AM PDT THU OCT 18 2018  
 
NOTE: "FAIR" INDICATES FEW OR NO CLOUDS BELOW 12,000 FEET WITH NO  
SIGNIFICANT WEATHER AND/OR S TO VISIBILITY
.  
 
- STATIONS PRECEEDED BY AN ASTERISK (*) ARE NOT NWS OR FAA  
STATIONS AND ARE NOT SUBJECT TO NWS AND FAA QUALITY CONTROL.
 
 
CAZ041-042-087-181700-  
LA AND ORANGE COUNTY COASTAL AREAS  
 
 
CITY SKY/WX TMP DP RH WIND PRES REMARKS
 
L.A. DOWNTOWN SUNNY 69 36 29 CALM 30.07  
L.A. AIRPORT SUNNY 70 36 28 E5 30.08R  
LONG BEACH SUNNY 66 44 45 NW5 30.08R  
 
CITY SKY/WX TMP DP RH WIND PRES REMARKS
 
AVALON N/A 63 N/A N/A SE3 N/A  
FULLERTON SUNNY 67 43 41 CALM 30.07R  
*GETTY CENTER N/A N/A N/A N/A NE5 N/A  
HAWTHORNE SUNNY 67 39 35 CALM 30.08R  
*LEO CARRILLO N/A 74 41 29 W3 N/A  
*LOS ALAMITOS SUNNY 65 44 45 CALM 30.07R  
*REDONDO BEACH N/A 59 45 59 CALM 30.07R  
SANTA ANA SUNNY 66 47 50 CALM 30.07R  
STA MONICA APT SUNNY 70 43 37 NE5 30.08R  
TORRANCE SUNNY 66 36 32 CALM 30.08R  
*UCLA N/A 75 32 20 N2 30.06R  
 

 
 
CAZ547-548-048-181700-  
LA COUNTY VALLEYS AND INLAND EMPIRE  
 
 
CITY SKY/WX TMP DP RH WIND PRES REMARKS
 
BURBANK SUNNY 66 32 28 CALM 30.10R  
VAN NUYS SUNNY 66 39 37 CALM 30.10R  
 
CITY SKY/WX TMP DP RH WIND PRES REMARKS
 
CORONA AIRPORT SUNNY 61 44 53 CALM 30.11R  
*CHATSWORTH N/A 74 35 24 CALM 30.08S  
CHINO SUNNY 65 44 46 CALM 30.12R  
*CLAREMONT N/A 69 39 32 CALM N/A  
MARCH AFB SUNNY 63 40 43 N3 30.12R  
*NORTHRIDGE N/A 72 30 21 S1 N/A  
ONTARIO SUNNY 67 36 31 N3 30.10R  
*PASADENA N/A 77 45 31 CALM N/A  
POMONA SUNNY 64 39 39 CALM 30.11R  
RIVERSIDE SUNNY 63 40 42 NE3 30.11R  
SAN BERNARDINO SUNNY 64 34 32 CALM 30.12R  
*SAN RAFAEL HI N/A 74 30 20 CALM N/A  
*SAUGUS N/A 67 27 22 CALM N/A  
*WHITEMAN AP SUNNY 68 32 26 CALM 30.13R  
*WHITTIER HILL N/A 73 34 24 NE7 N/A  
*WOODLAND HILL N/A 70 39 32 CALM N/A  
 

 
 
CAZ054-055-181700-  
LA AND SAN BERNARDINO COUNTY MOUNTAINS  
 
 
CITY SKY/WX TMP DP RH WIND PRES REMARKS
 
*ACTON N/A 64 28 26 NE2 N/A  
*BIG BEAR AIRP SUNNY 41 30 65 E5 30.30R  
*BIG PINES N/A 51 21 30 E2 N/A  
*CHILAO N/A 60 19 20 E7G21 N/A  
SANDBERG SUNNY 63 21 20 NE7 30.26R  
*WARM SPRINGS N/A 65 24 21 NE14 N/A  
 

 
 
CAZ028-029-059-060-099-181700-  
ANTELOPE VALLEY AND SURROUNDING AREAS  
 
 
CITY SKY/WX TMP DP RH WIND PRES REMARKS
 
LANCASTER SUNNY 53 19 26 CALM 30.22R  
PALMDALE SUNNY 52 21 29 NW5 30.21R  
*POPPY PARK N/A 59 22 24 NW6 N/A  
 
CITY SKY/WX TMP DP RH WIND PRES REMARKS
 
29 PALMS SUNNY 61 40 45 NW7 30.24R  
BARSTOW/DAGGET SUNNY 58 34 40 W10 30.19R  
BISHOP SUNNY 51 19 28 N5 30.28R  
CHINA LAKE SUNNY 55 18 23 CALM 30.21R  
EDWARDS AFB SUNNY 46 15 28 CALM 30.20R  
MOJAVE SUNNY 59 19 21 NW3 30.20R  
NEEDLES SUNNY 71 37 28 N14 30.15R  
VICTORVILLE SUNNY N/A N/A N/A CALM 30.21R  
 

 
 
CAZ039-040-181700-  
VENTURA AND SANTA BARBARA COUNTY COAST  
 
 
CITY SKY/WX TMP DP RH WIND PRES REMARKS
 
CAMARILLO SUNNY 66 37 34 CALM 30.08R  
NWS OXNARD N/A 64 32 29 NW3 30.06R  
OXNARD AIRPORT SUNNY 68 30 24 NE9 30.08R  
*POINT MUGU SUNNY 63 41 44 N3 30.09R  
SBA APT/GOLETA SUNNY 62 46 55 CALM 30.08R  
*SANTA BARBARA N/A 67 55 66 CALM 30.16R  
*VENTURA N/A 70 32 24 MISG N/A  
 

 
 
CAZ044-045-181700-  
VENTURA COUNTY VALLEYS  
 
 
CITY SKY/WX TMP DP RH WIND PRES REMARKS
 
*SIMI VALLEY N/A 72 35 25 NE3 30.05S  
*WESTLAKE VILL N/A 52 41 67 CALM 30.09R  
 

 
 
CAZ053-181700-  
VENTURA COUNTY MOUNTAINS  
 
 
CITY SKY/WX TMP DP RH WIND PRES REMARKS
 
*LOCKWOOD VLY N/A 54 21 28 NW2 N/A  
*FRAZIER MTN N/A 49 19 30 NE2 30.17R  
*ROSE VALLEY N/A 54 21 28 NE2 N/A  
 

 
 
CAZ034-035-036-181700-  
CENTRAL COAST AND SANTA YNEZ VALLEY  
 
 
CITY SKY/WX TMP DP RH WIND PRES REMARKS
 
SAN LUIS OBISP FOG 50 50 100 CALM 30.12R VSB<1/4  
SANTA MARIA SUNNY 55 49 80 CALM 30.12R  
 
CITY SKY/WX TMP DP RH WIND PRES REMARKS
 
*CAL POLY SLO N/A 45 45 100 CALM N/A  
*LOMPOC SUNNY 49 47 93 E5 30.12R  
*PISMO BEACH N/A N/A N/A N/A CALM 30.12R  
*SANTA YNEZ FAIR 50 43 76 CALM 30.12R  
 

 
 
CAZ037-038-051-181700-  
SAN LUIS OBISPO COUNTY INTERIOR AND CUYAMA VALLEY  
 
 
CITY SKY/WX TMP DP RH WIND PRES REMARKS
 
PASO ROBLES SUNNY 44 44 100 CALM 30.16R  
 

 
 
CAZ032-033-061-181700-  
SOUTHERN DESERTS  
 
 
CITY SKY/WX TMP DP RH WIND PRES REMARKS
 
BLYTHE SUNNY 71 40 32 N10 30.11R  
IMPERIAL SUNNY 70 43 37 W5 30.08R  
PALM SPRINGS SUNNY 74 36 25 NW5 30.12R  
THERMAL SUNNY 73 42 32 NW5 30.07R  
 

 
 
ELSEWHERE ACROSS THE WESTERN UNITED STATES AND MEXICO  
 
 
CITY SKY/WX TMP DP RH WIND PRES REMARKS
 
DEATH VALLEY, N/A 65 22 19 CALM N/A  
DENVER, CO MOSUNNY 57 34 41 SW16G25 30.25S  
GRAND CANYON, SUNNY 46 35 65 E8 30.31R  
HONOLULU, HI PTCLDY 75 70 83 E9 29.96  
KAHULUI, MAUI PTCLDY 77 73 88 NE7 29.96R  
LAKE TAHOE, CA SUNNY 33 24 69 S5 30.32R WCI 29  
LAS VEGAS, NV SUNNY 62 35 36 CALM 30.22R  
MAMMOTH LAKES, FAIR 36 16 44 CALM 30.36R  
MEXICO CITY, M CLOUDY 61 48 63 NW10 30.38R  
PHOENIX, AZ MOSUNNY 69 47 45 E12 30.09R  
PORTLAND, OR MOSUNNY 49 45 86 SW3 30.21R  
RENO, NV SUNNY 44 25 47 CALM 30.30R  
SALT LAKE CITY MOSUNNY 52 35 52 SE9 30.28R  
SAN DIEGO, CA SUNNY 69 42 37 CALM 30.08R  
SAN FRANCISCO, CLOUDY 55 50 83 S7 30.15R  
SAN JOSE, CA CLOUDY 56 51 84 CALM 30.16R HAZE  
SEATTLE, WA PTSUNNY 51 41 68 S7 30.17R  
TIJUANA, MEX SUNNY 66 36 32 CALM 30.09R  
 

 
 
STATION/POSITION TIME TEMP WIND PRES VSBY WAVE
 
AIR SEA DIR/SP/G HT/PER  
(UTC) (F) (DEG/KT/KT) (MB) (MI) (FT/S)  
WEST SANTA BARBA 1550 1018.4R 7/16  
EAST SANTA BARBA 1600 64 230/ 6/ 8 1019.1  
SANTA MONICA BAY 1550 67 68 10/ 6/ 8 1018.3R 2/16  
SAN CLEMENTE BAS 1550 67 67 350/ 8/ 10 1018.0R 4/17  
 
CLICK HERE TO GO TO PREVIOUS BULLETINS.

The Nexlab CA Page Main Text Page